الصفحة الرئيسية
METAR-TAF:

METAR-TAF

مطار :

Municipal_Airport

سوكورو, نيومكسيكو, الولايات المتحدة

دائرة عرض: 34-01N, خط طول: 106-54W, ارتفاع: 1478 متر

مراقبة الطقس الحالي

تاريخ ووقت الإصدار 18 دقيقة قبل الساعة 07:15UTC
رياح هادئة
درجة الحرارة 8°درجة مئوية
الرطوبة 57%
ضغط 1022 hPa
الرؤية: 16.1 كم
سماء صافية

METAR: KONM 210715Z AUTO 00000KT 10SM CLR 08/00 A3019 RMK AO2 T00750000

زمن: 01:33 (07:33 UTC)


TAF: مفقودة

أرصاد الطقس والتوقعات من أكثر من 4000 مطار (تقارير الطقس للمطار METAR والتنبؤ بالطقس بالمطارTAF).

المحطات المتاحة هي النقط الصفراء والحمراء على الخريطة.

حرك المؤشر فوق النقطة لمعرفة اسم المحطة.

ثم انقر لمعرفة أرصاد وتوقعات الطقس.

لتغيير الخارطة: اضغط على الأزرار الخضراء مع رمز الصليب الأسود للتكبير. على الزر الأخضر مع شرطة للتصغير، أو على الأسهم الخضراء للخرائط المجاورة.


METAR-TAF: